RH
48 48 41 36 33 31 30 28 28 26 24 24 25 26 27 30 32 30 33 36 37 36
47 40 38 33 30 29 28 26 25 24 24 23 24 24 25 27 26 28 31 34 36 37
42 36 34 31 30 29 26 24 25 24 24 24 23 23 24 26 25 26 30 32 33 35
44 39 32 32 28 27 23 23 23 23 23 22 22 22 23 23 25 28 30 33 40 39
38 33 33 28 25 22 22 21 22 22 22 22 23 22 21 23 24 28 32 34 45 46
33 31 29 25 23 22 22 22 22 23 24 23 25 24 22 22 25 28 32 36 37 39
34 29 26 24 24 24 23 24 24 25 25 26 24 25 25 29 32 35 38 38 40 38
32 28 27 27 26 26 27 26 26 26 26 26 26 23 38 40 40 39 37 37 35 37
30 30 31 29 30 31 30 29 28 28 27 28 23 46 51 52 46 40 38 38 36 38
31 32 33 32 31 33 31 29 29 27 27 27 28 46 52 55 47 43 41 47 49 46
33 34 33 32 32 30 28 28 27 27 27 30 30 46 52 57 47 39 40 47 43 43
32 32 33 33 30 28 27 27 27 29 30 29 28 40 51 56 46 41 41 39 39 41
29 32 33 32 29 29 28 30 31 32 29 31 32 34 48 53 47 47 43 42 41 47
30 30 28 28 28 27 30 34 29 31 27 28 30 35 44 53 52 50 51 50 50 50
Wind_Speed
16 10 11 12 12 10 8 9 11 9 8 8 7 5 4 2 1 1 3 3 4 4
14 15 14 15 11 8 10 9 10 10 9 8 6 4 3 1 2 3 3 4 5 5
13 13 13 14 12 11 11 12 11 10 8 7 5 4 2 2 2 4 4 3 6 6
14 13 13 12 12 12 13 12 11 10 8 6 5 3 2 3 4 5 6 5 5 7
15 14 14 13 13 13 13 12 11 9 7 5 3 1 2 4 5 6 7 7 6 7
15 14 14 13 13 13 12 11 10 8 7 5 3 0 3 5 6 7 8 8 8 9
15 14 13 12 13 12 12 11 9 7 7 5 2 1 3 6 7 8 8 8 8 9
15 14 13 13 12 11 10 9 9 8 6 4 1 2 5 7 8 9 9 9 9 8
15 14 13 12 11 11 9 9 8 6 4 2 1 4 5 7 8 10 9 9 9 9
15 15 13 12 12 10 8 7 6 5 2 1 1 3 6 10 8 9 8 8 8 8
16 14 12 11 10 9 7 6 4 3 1 1 1 2 7 11 10 8 9 7 9 9
13 13 11 10 10 7 6 5 3 1 2 3 4 2 7 10 9 8 9 8 9 9
12 11 10 10 8 6 5 4 2 1 2 1 5 5 7 10 7 9 7 9 10 14
11 10 10 9 7 5 4 2 0 2 3 3 4 6 7 10 8 7 8 7 7 8
Wind_Direction
149 163 154 151 149 148 151 153 153 149 139 136 136 139 147 149 209 265 268 279 290 289
150 151 148 146 147 142 136 138 147 141 141 139 139 146 152 208 244 248 271 280 275 275
148 145 140 136 142 132 133 142 142 141 140 141 142 149 182 233 238 273 276 270 288 293
135 143 132 134 132 130 141 142 141 141 143 146 152 156 238 273 281 267 282 284 284 297
133 135 130 135 130 136 138 137 135 138 138 136 129 117 293 291 285 285 290 291 290 286
128 129 130 131 130 132 131 130 132 134 135 127 115 314 298 302 297 292 289 289 290 295
128 127 127 124 124 125 128 129 128 122 116 111 112 324 304 298 295 291 295 290 281 287
124 119 122 118 118 119 120 121 121 118 117 120 76 28 334 311 304 301 299 296 292 292
118 115 118 115 114 113 118 119 113 111 108 100 67 58 315 313 309 301 296 300 307 308
120 118 115 116 116 117 124 118 116 115 104 37 340 51 325 316 300 299 296 299 301 297
112 111 116 115 113 118 124 114 111 111 75 331 326 70 316 314 297 302 298 295 292 299
109 115 111 112 117 123 119 117 112 78 348 323 309 80 322 326 316 307 301 301 306 304
106 108 115 119 114 104 97 97 87 349 297 299 283 334 340 333 313 310 317 316 309 317
108 109 108 108 109 110 100 98 294 271 284 288 311 315 321 328 320 320 315 308 319 313